Theta_e
289 289 290 290 290 290 289 289 289 289 290 290 290 290 290 291 291 291 292 292 292 292 292 292 293 293 294 294 294 294 294 294 294 294 294 294 294 293 293 293 293 292 292 292 292 292 292 292 292 292 292 292 292 292 292 293 293 293 293 294 294 295 295 295 296 294 291 290 290 289 288 287 286 286 286 285 286 285 285 285 285 284 284 283 283
289 289 289 289 289 289 288 288 288 288 288 289 289 289 289 290 290 290 290 291 291 291 292 292 292 292 293 293 294 294 294 294 294 294 294 293 293 293 293 293 292 292 292 292 292 292 292 292 292 292 292 292 292 292 292 292 292 292 292 293 293 293 294 294 294 294 290 289 289 288 288 287 286 286 285 285 286 285 285 285 284 284 284 283 283
289 289 289 288 288 288 288 287 287 286 287 287 287 287 288 288 288 288 288 289 289 290 291 291 291 291 291 292 292 293 293 293 293 293 293 293 293 293 293 292 292 292 291 292 292 292 291 291 291 291 291 291 291 291 291 291 291 292 292 292 292 292 293 293 293 293 291 288 288 288 287 286 286 286 285 285 285 285 285 285 284 284 283 282 282
289 289 289 288 289 288 288 287 287 286 286 286 286 286 286 286 286 287 287 287 287 288 289 290 290 291 291 291 291 292 292 292 292 292 292 292 292 292 292 292 292 292 292 291 291 292 291 291 291 291 291 291 291 291 291 291 291 291 291 291 292 292 292 292 292 292 291 289 287 287 287 286 285 285 285 284 284 285 284 284 284 283 282 282 282
289 289 289 288 289 289 288 288 287 286 286 286 286 285 285 285 285 285 286 286 286 286 287 288 289 290 290 290 291 291 291 291 291 292 292 292 292 291 292 292 291 292 291 291 291 291 291 291 291 291 291 290 290 290 290 290 290 290 291 291 291 291 291 291 291 291 291 289 287 286 286 285 285 284 284 284 283 283 283 283 283 282 282 281 281
288 288 288 288 288 288 288 288 288 287 286 286 286 285 285 284 284 284 284 285 285 285 286 287 287 288 289 289 290 290 290 290 291 291 291 291 291 291 291 291 291 291 291 291 291 291 291 291 291 291 291 290 290 290 290 290 290 290 290 290 290 290 290 290 290 290 290 289 288 286 285 285 284 284 283 283 283 283 282 282 282 281 281 281 281
287 287 287 288 287 288 288 288 288 288 287 287 286 286 285 284 284 284 284 284 284 284 285 285 286 286 287 288 289 289 289 289 290 290 290 290 291 291 290 290 290 291 290 290 290 290 290 291 291 290 290 290 290 290 290 290 290 290 290 290 290 290 289 289 289 289 289 289 287 286 285 284 284 283 283 283 283 282 282 282 281 281 281 281 281
287 287 287 287 287 287 287 287 287 287 287 286 286 286 286 285 284 284 284 284 284 284 284 284 284 285 286 286 287 288 289 289 289 289 289 290 290 290 290 290 290 290 290 290 290 290 290 290 290 290 290 290 290 290 290 290 290 289 289 289 289 289 289 289 288 288 288 288 287 285 285 284 283 283 282 281 281 282 282 282 282 282 281 281 281
286 286 286 286 286 286 286 286 286 286 286 285 285 286 286 286 285 284 284 283 284 283 284 284 284 284 284 285 286 286 287 288 288 289 289 289 289 289 289 289 289 289 289 289 289 289 289 289 289 290 290 290 290 290 290 289 289 289 289 289 289 288 288 288 288 288 288 288 287 285 284 283 283 282 282 281 281 282 282 282 282 282 282 282 281
285 286 286 286 285 285 285 285 285 285 285 284 284 285 286 286 285 284 284 284 284 283 283 284 284 284 284 284 285 285 286 286 287 288 288 289 289 289 289 289 289 289 289 289 289 289 289 289 289 289 289 289 289 289 289 289 289 289 289 288 288 288 288 288 288 288 287 288 287 285 284 283 283 283 282 282 282 282 282 282 282 283 283 282 282
285 285 285 285 285 285 284 284 284 284 283 283 283 283 284 285 285 284 283 283 283 283 283 283 284 284 285 284 285 285 285 285 286 287 287 288 288 288 288 288 288 288 288 289 289 289 289 289 289 288 289 289 289 289 289 288 288 288 288 288 288 288 288 288 288 287 287 287 287 286 285 284 284 283 283 282 282 282 282 282 283 283 283 282 282
285 285 285 284 284 284 283 283 283 283 283 282 282 282 282 283 284 283 283 283 282 282 282 283 283 284 284 284 285 285 285 285 285 285 286 286 287 288 288 288 288 288 288 288 288 288 288 288 288 288 288 288 288 288 288 288 288 288 288 288 288 288 288 288 288 288 287 287 287 286 286 285 284 283 283 283 282 282 282 282 282 283 283 283 283
285 284 284 284 284 283 283 283 283 283 282 282 281 281 281 282 283 282 282 282 281 281 281 282 282 283 284 284 284 284 284 284 284 284 284 285 285 287 288 288 288 288 288 288 288 288 288 288 288 288 288 288 288 288 288 288 287 287 287 287 287 287 287 287 287 288 287 287 287 287 286 286 285 284 283 283 283 282 282 282 282 282 282 283 283
284 284 283 283 283 283 282 282 282 282 282 281 281 280 280 281 282 282 281 280 280 280 280 280 281 282 284 284 284 284 284 284 283 283 283 284 284 286 287 288 288 288 288 288 288 288 288 288 288 288 288 288 288 288 287 287 287 287 287 287 287 287 287 287 287 287 287 287 287 287 287 286 285 285 284 284 283 283 283 282 282 282 282 282 283
284 283 283 283 282 282 282 282 282 281 281 281 280 280 279 279 280 281 280 279 279 278 279 279 280 281 282 283 283 283 283 283 283 283 283 283 283 285 286 287 288 288 288 288 288 288 288 288 288 288 287 287 287 287 287 287 286 286 286 286 286 286 286 286 286 286 286 287 286 287 287 286 286 285 284 284 283 283 283 283 282 282 282 282 281
283 283 282 282 282 282 281 281 281 281 281 280 279 279 278 278 279 279 278 278 277 277 277 278 279 280 280 281 282 283 283 283 283 283 283 283 283 284 285 286 287 288 288 288 288 288 288 288 288 288 287 287 287 287 287 287 286 286 286 286 286 286 285 286 286 286 286 286 286 286 286 286 286 285 284 284 283 283 283 282 282 282 281 280 280
282 282 282 282 281 281 281 281 280 280 280 280 279 278 278 277 278 278 277 276 276 276 276 277 277 278 279 280 281 282 282 282 282 282 282 282 283 284 285 285 286 287 287 287 288 288 288 288 288 287 287 287 287 287 286 286 286 285 285 285 285 285 285 285 285 285 285 285 285 285 285 285 285 284 284 283 283 282 282 281 281 281 280 280 279
281 281 281 281 280 280 280 280 279 279 279 279 278 277 276 276 277 276 275 275 275 275 275 275 276 277 278 278 279 280 281 281 282 282 282 282 283 284 284 285 286 286 286 287 287 288 288 288 288 287 287 287 287 286 286 286 286 285 285 285 284 284 284 284 284 284 284 284 284 283 283 283 283 283 283 283 282 282 282 281 281 280 280 280 280
280 279 279 279 279 279 278 278 278 278 278 277 277 276 275 275 276 275 274 274 274 274 274 274 275 275 276 276 277 278 279 280 280 281 281 281 282 283 284 285 285 286 286 286 287 287 288 288 288 288 287 287 287 286 286 286 286 285 285 284 284 284 284 284 283 283 283 283 282 282 282 282 282 282 282 282 282 282 282 282 281 280 280 280 279
278 277 277 277 277 277 276 276 276 276 276 276 275 274 274 274 274 273 273 273 273 272 273 273 273 274 274 274 275 276 277 277 278 279 280 281 282 283 283 284 285 285 286 286 287 287 287 288 288 288 288 287 287 286 286 286 285 285 285 284 284 284 284 283 283 283 283 282 282 282 282 282 282 282 282 282 281 281 281 281 281 281 280 280 278
275 275 275 275 275 275 274 274 274 274 274 273 273 273 273 273 272 272 272 272 271 271 272 272 272 272 272 272 273 274 275 276 277 278 280 281 282 283 283 284 284 285 285 286 286 287 287 287 288 288 287 287 287 286 286 286 286 285 285 284 284 284 284 283 282 282 282 282 281 281 281 281 281 281 281 281 281 280 280 280 280 280 280 280 279
273 273 273 273 273 272 271 271 271 271 271 271 271 271 271 271 271 271 270 271 270 270 270 271 271 271 271 272 272 273 274 275 277 278 279 280 281 282 283 283 283 284 285 285 286 286 286 287 287 287 287 287 287 287 286 286 286 286 285 284 284 284 284 283 282 282 282 281 281 281 281 281 281 281 281 281 280 280 279 279 279 279 280 279 279
270 270 270 270 269 268 268 268 268 268 268 269 269 269 269 269 269 269 269 269 269 269 269 270 270 270 271 271 272 273 274 275 277 278 279 280 281 282 283 283 282 283 284 285 285 286 286 286 287 287 287 286 286 286 286 286 286 286 285 285 284 284 283 283 282 282 281 281 281 281 280 281 281 280 280 280 280 279 278 278 278 278 278 278 278
267 267 267 266 265 265 265 265 265 265 266 266 266 267 267 267 268 268 268 268 268 269 269 269 270 270 270 271 272 273 274 275 277 278 280 281 281 282 282 282 283 283 284 284 285 285 286 286 286 287 286 286 285 286 286 286 285 286 286 285 284 284 283 283 282 281 281 281 281 281 280 280 280 280 279 278 278 277 277 277 277 277 277 277 276
265 264 264 264 263 263 263 263 263 264 264 264 265 265 265 266 266 267 267 267 267 268 268 269 269 270 270 271 272 272 273 275 276 278 279 281 282 282 283 283 283 283 284 284 284 285 285 286 286 287 286 285 285 285 285 285 285 285 285 285 285 284 283 282 282 281 281 281 280 280 280 280 279 279 278 277 277 277 276 276 276 275 275 275 274
263 263 263 263 263 263 263 263 263 263 263 263 264 264 264 265 265 265 266 266 267 267 268 268 268 269 270 270 271 272 273 274 276 277 279 280 281 282 283 283 283 283 284 284 284 284 285 286 286 286 286 285 285 285 285 285 285 285 285 285 285 284 283 282 282 281 281 281 280 280 279 279 278 277 277 277 276 276 275 275 274 274 274 274 273
262 262 262 262 262 262 262 262 262 263 263 263 263 263 264 264 264 265 265 265 266 266 267 267 268 268 269 270 271 272 273 274 276 277 279 280 281 281 282 282 282 283 283 283 284 284 284 285 286 286 286 285 284 284 284 284 284 284 284 285 285 284 283 282 281 281 281 280 280 279 279 278 277 277 276 276 275 274 274 274 273 272 272 273 272
262 262 262 262 262 262 262 262 262 263 263 263 263 263 263 263 264 264 264 264 265 265 266 266 266 267 268 269 269 270 271 273 274 276 278 279 281 282 282 281 281 282 282 282 283 283 284 284 285 285 285 284 284 284 284 284 284 284 284 284 284 284 283 282 281 281 281 280 280 279 278 277 276 276 275 275 274 273 273 273 272 271 271 271 271
262 262 262 261 262 262 262 262 262 262 263 263 263 263 263 263 263 264 264 264 264 264 265 265 266 266 267 267 268 269 270 272 273 274 276 278 280 281 282 282 281 281 281 282 282 283 283 284 284 284 284 283 283 283 283 283 283 283 283 283 284 284 283 281 280 280 280 280 279 278 277 276 276 275 274 274 273 272 272 272 272 271 271 270 270
261 261 261 261 261 262 262 262 262 262 262 263 263 263 263 263 264 264 264 265 265 265 266 266 267 267 267 268 268 269 270 271 272 273 275 276 278 279 281 281 282 282 282 282 282 283 283 284 284 283 283 283 282 282 282 283 283 283 283 283 283 283 282 280 280 280 280 279 278 277 276 275 274 274 273 273 271 271 271 271 271 270 270 269 269
261 261 261 261 261 261 261 261 262 262 262 262 262 263 263 263 263 264 265 265 265 266 267 267 268 268 269 269 269 269 270 271 272 273 274 275 277 278 279 281 282 282 282 282 282 282 283 283 283 282 282 282 282 282 282 282 282 282 282 282 283 283 281 280 279 279 279 278 277 276 275 274 273 273 272 271 270 270 270 270 270 270 269 269 269
260 260 260 260 260 261 261 261 261 262 262 262 262 263 263 263 263 263 264 265 265 266 266 267 267 268 268 268 269 269 270 270 271 272 273 274 275 276 278 279 281 281 282 283 283 283 283 283 282 281 281 281 281 281 282 282 282 282 282 282 282 282 280 279 279 279 278 277 275 274 273 273 273 272 272 271 270 269 269 269 269 269 269 269 269
260 260 260 260 260 260 261 261 261 261 262 262 262 262 263 263 263 263 263 264 264 265 265 266 266 267 267 267 268 268 269 270 270 271 272 273 274 275 276 278 279 280 282 283 283 283 283 283 282 281 281 281 281 281 281 282 282 282 282 282 282 280 279 278 278 278 277 276 274 273 273 272 272 272 271 270 270 269 269 268 268 268 268 269 269
260 260 260 260 260 260 261 261 261 261 262 262 262 262 262 263 263 263 263 263 263 264 264 264 265 265 266 266 267 267 268 269 270 271 272 273 274 275 276 277 278 278 280 282 283 284 283 283 282 282 281 281 281 281 281 281 281 281 281 281 280 279 278 278 277 276 276 275 274 273 272 272 272 271 270 269 269 269 268 268 268 268 268 268 268
260 260 260 260 260 261 261 261 261 262 262 262 262 262 262 262 263 263 263 263 263 263 263 264 264 265 265 266 267 267 268 269 270 271 273 274 275 276 276 277 278 278 279 281 283 284 283 283 282 281 281 281 281 281 281 281 281 280 280 279 278 277 277 276 276 275 275 274 273 272 272 271 271 270 269 269 269 268 268 268 268 268 268 268 268
260 260 260 260 261 261 261 261 262 262 262 262 262 262 262 262 262 263 263 263 263 263 264 264 264 264 265 266 267 268 269 270 271 272 273 274 275 277 278 279 279 279 281 282 283 284 283 283 282 281 281 281 281 281 281 281 280 279 278 278 277 276 275 275 275 274 274 273 272 271 271 270 270 269 269 269 268 268 268 268 268 268 268 268 268
260 260 260 261 261 261 261 262 262 262 262 262 262 263 263 263 263 263 263 263 264 264 264 265 265 265 266 266 267 268 269 270 271 272 273 275 277 278 280 281 281 281 282 283 283 283 283 283 282 281 281 281 281 281 280 280 279 278 277 276 276 275 274 274 274 273 272 271 271 270 270 269 269 269 269 268 268 268 268 268 268 268 268 268 268
260 261 261 261 261 262 262 262 263 263 263 263 263 263 263 263 264 264 264 264 264 264 265 265 265 265 266 266 267 268 269 269 270 272 274 277 279 280 280 281 282 282 283 284 283 283 283 283 281 281 281 281 281 280 280 279 277 277 276 275 274 274 273 273 273 272 271 271 270 270 269 269 268 268 268 268 268 268 268 268 267 267 267 268 268
260 261 261 261 262 262 263 263 263 263 263 264 264 264 264 264 264 264 264 264 264 265 265 265 265 266 266 266 267 268 269 270 270 272 274 276 279 279 280 281 282 282 283 283 283 283 283 282 281 281 281 281 280 279 278 277 276 276 275 274 273 272 272 272 271 270 270 270 269 269 268 268 268 268 268 268 267 267 267 267 267 267 267 267 267
260 260 261 261 262 262 263 263 263 264 264 264 264 264 264 264 264 264 264 265 265 265 265 265 266 266 267 267 268 269 270 271 272 273 274 276 277 278 279 280 281 282 283 283 283 283 282 282 281 281 280 280 279 278 277 276 276 275 273 272 272 272 271 271 270 270 269 269 268 268 268 267 268 268 268 267 267 267 267 267 267 267 267 267 267
260 260 261 261 262 263 263 263 264 264 265 265 265 265 265 265 265 265 265 265 265 265 266 266 266 267 267 268 269 270 271 272 272 273 275 276 277 278 279 279 280 282 283 283 282 282 281 281 280 279 279 278 277 276 276 276 275 273 272 271 271 271 270 270 269 269 268 268 267 267 267 267 268 268 267 267 267 267 267 267 267 267 267 267 267
260 260 261 262 262 263 263 264 264 265 265 266 266 266 266 265 265 265 265 266 266 266 266 266 267 267 267 268 270 271 272 273 273 274 275 276 277 277 277 278 279 280 281 281 281 281 280 280 279 278 278 277 276 276 276 275 274 272 271 271 270 270 269 269 268 268 268 267 267 267 267 267 267 267 267 267 267 267 267 267 267 267 267 267 267
260 261 261 261 262 262 263 264 264 265 265 266 266 266 267 267 266 266 266 266 266 266 266 267 267 268 268 270 271 272 273 274 274 274 274 274 274 274 275 276 277 278 279 280 280 280 280 279 278 277 277 276 276 276 275 274 273 272 271 270 269 269 269 268 268 268 267 267 267 267 267 267 267 267 267 267 267 266 266 266 266 266 267 267 267
260 260 261 261 262 262 263 263 264 264 265 265 266 266 267 267 267 267 267 267 267 267 268 268 268 269 269 270 270 270 271 271 271 270 270 270 270 271 272 273 274 275 276 277 277 278 278 277 276 275 275 275 275 274 273 272 272 271 271 270 269 268 268 268 267 267 267 267 267 267 267 267 267 267 267 266 266 266 266 266 266 266 266 266 267
260 260 260 261 261 262 262 263 263 264 264 264 265 265 266 266 266 267 267 267 267 267 267 267 268 268 268 267 267 267 267 267 267 267 267 267 267 268 269 270 271 272 272 273 274 274 275 274 274 273 273 272 272 272 272 271 271 271 270 270 269 268 268 268 267 267 268 268 268 267 267 267 267 266 266 266 266 266 266 266 266 266 266 266 266
259 259 260 261 261 261 262 262 262 263 263 263 264 264 265 265 265 265 265 266 266 266 266 266 266 266 265 265 265 265 265 265 265 264 264 264 265 266 267 268 269 270 270 271 271 271 271 271 270 270 270 270 270 270 270 270 269 269 269 269 268 268 267 267 267 268 269 269 269 268 267 266 266 266 266 266 266 266 266 266 266 266 266 266 266
259 259 260 260 260 261 261 261 261 262 262 263 263 263 264 264 264 264 264 264 264 265 264 264 264 264 264 263 263 263 263 263 263 262 262 263 263 265 266 266 267 268 268 268 269 269 268 268 268 268 268 268 268 268 268 269 269 269 269 268 268 268 267 267 268 269 269 269 269 268 267 267 266 266 266 266 266 266 266 266 266 266 266 266 266
259 259 259 260 260 260 260 261 261 261 261 261 262 262 263 263 263 263 263 263 263 263 263 263 263 263 262 262 262 262 262 261 261 261 261 261 262 263 264 265 266 266 266 266 267 267 267 267 267 267 267 267 267 267 268 268 268 268 268 267 267 267 267 268 268 269 269 269 269 268 268 267 266 266 266 266 266 266 266 266 266 266 266 266 266
259 259 259 259 259 259 260 260 260 260 260 260 261 261 261 262 262 262 262 262 262 262 262 262 262 262 262 261 261 261 261 260 260 260 260 260 261 261 262 263 264 264 264 264 264 265 265 265 265 265 265 265 266 266 267 267 267 268 267 267 267 268 268 269 269 269 269 269 268 268 267 267 266 266 266 266 266 266 266 266 266 266 266 266 266
259 259 259 259 259 259 259 259 260 260 260 260 260 260 260 261 261 261 261 261 261 261 261 261 261 261 261 261 260 260 260 259 259 259 259 259 260 260 261 261 262 262 262 262 262 262 263 264 265 265 265 265 266 267 267 267 268 268 268 268 268 268 269 268 268 268 268 268 268 267 267 267 266 266 266 266 266 266 266 266 265 265 265 265 266
258 258 259 259 259 259 259 259 259 259 259 259 260 260 260 260 260 261 261 261 261 261 261 261 261 261 260 260 260 260 260 260 259 259 259 259 259 260 260 260 261 261 261 261 262 263 264 265 265 266 266 267 267 267 267 268 268 268 268 267 267 268 267 267 267 267 267 267 267 267 267 266 266 266 266 266 266 266 266 265 265 265 265 265 266
Wind_Speed
17 16 16 15 15 15 17 19 20 21 20 19 19 19 19 18 18 19 18 17 17 17 17 17 17 17 18 19 19 20 21 22 23 23 25 26 27 28 29 30 32 33 33 33 34 36 37 37 39 41 40 40 40 39 38 39 38 38 36 34 33 32 30 24 14 6 9 15 22 25 27 29 31 32 32 32 32 31 31 30 29 27 24 21 19
20 19 19 20 19 19 19 20 21 22 21 19 19 19 18 18 18 20 19 19 18 18 17 17 17 17 17 18 19 20 20 21 22 23 24 25 26 27 28 29 30 32 33 34 34 34 36 38 39 39 38 39 41 40 39 40 39 39 39 36 35 34 33 29 21 11 10 14 20 24 26 28 30 31 33 34 34 32 31 30 29 28 26 23 21
20 19 19 20 19 20 21 21 21 22 21 20 19 19 18 18 20 21 21 21 21 19 18 17 17 18 18 18 19 19 20 20 21 22 23 24 25 27 28 29 31 31 32 34 34 34 35 38 40 38 36 37 40 41 40 41 40 40 40 38 36 35 34 33 27 19 14 17 21 24 26 28 28 29 31 33 33 32 31 30 29 29 27 24 23
17 17 18 18 18 18 19 20 21 23 22 22 22 21 20 20 20 20 20 22 23 22 20 19 17 17 17 18 19 19 20 20 21 22 23 24 26 27 27 28 31 32 33 33 33 34 35 37 39 38 35 36 39 40 40 40 41 41 40 39 38 36 34 34 33 27 18 18 21 24 27 28 26 27 29 29 29 30 30 29 28 27 26 25 23
15 15 16 17 17 17 18 18 19 21 22 23 24 24 24 23 23 22 21 21 23 23 22 20 19 17 17 18 19 19 20 20 21 22 22 23 25 26 27 28 30 31 33 34 34 34 35 37 39 36 35 37 40 40 40 40 40 40 40 39 39 37 35 34 35 32 23 20 21 22 24 26 23 23 28 29 27 27 26 26 25 24 23 23 23
15 15 14 15 15 15 16 17 17 17 18 20 22 24 26 26 27 26 23 22 22 21 21 20 20 19 19 18 18 19 20 21 21 22 23 23 24 26 27 28 29 31 32 33 34 35 36 38 38 36 36 39 41 41 40 40 39 38 39 40 39 37 35 35 35 33 27 23 24 24 24 26 24 23 27 31 30 28 26 24 23 22 21 21 22
17 16 14 14 14 14 15 16 16 15 16 17 19 21 23 26 27 27 26 26 24 22 21 21 21 21 20 19 19 19 20 20 21 23 23 24 24 26 27 28 29 31 32 33 34 35 37 38 38 38 38 40 42 42 40 39 38 39 40 40 38 36 36 35 33 32 29 24 24 25 25 26 26 24 25 28 27 26 26 23 21 21 22 22 22
16 16 15 14 14 14 14 15 15 15 17 19 20 20 21 24 26 27 28 28 27 26 25 24 23 22 21 20 20 20 19 19 20 22 24 25 25 25 27 28 29 31 32 34 35 36 37 38 39 39 40 42 43 42 42 40 39 40 42 40 38 36 36 35 32 31 30 25 23 25 25 24 24 23 23 25 24 23 26 26 24 23 24 24 23
15 15 15 15 16 16 17 18 16 15 17 19 21 21 21 23 25 26 28 28 28 29 28 26 26 25 23 22 21 20 19 20 20 20 22 24 25 26 27 28 28 30 31 33 34 36 37 37 39 40 40 42 44 44 44 43 41 41 42 40 37 36 35 34 33 31 30 25 22 23 23 23 25 25 25 29 30 27 26 26 24 23 23 22 22
20 18 16 16 17 18 19 21 20 19 20 19 21 22 22 23 24 25 28 28 27 27 28 28 29 28 26 24 23 22 21 20 20 20 21 23 25 27 29 30 30 31 31 32 33 35 36 36 38 40 40 41 43 45 45 44 44 45 44 40 39 39 36 34 33 33 31 27 24 24 21 21 26 30 30 32 33 29 27 27 24 21 20 18 17
21 19 19 20 21 21 22 22 22 25 26 25 25 25 24 24 25 26 28 28 28 28 27 27 28 27 26 26 25 24 23 21 20 20 20 21 23 26 29 31 32 33 33 33 33 34 34 35 36 37 38 40 41 43 43 45 47 48 47 43 42 43 41 37 35 35 33 30 29 28 25 24 28 32 31 31 31 28 29 30 27 23 22 18 14
17 18 20 21 23 25 26 25 25 27 28 28 28 28 27 27 27 27 28 28 29 30 30 28 28 27 27 27 26 26 26 25 24 23 23 23 22 24 27 30 31 33 34 34 34 34 34 34 35 34 35 37 38 38 40 43 46 47 47 46 45 46 46 44 41 38 36 33 30 30 31 30 30 32 33 32 32 31 29 30 31 28 25 23 18
16 19 20 21 23 25 26 27 28 29 29 29 30 29 29 28 28 28 29 29 29 29 30 30 30 29 27 26 27 28 29 29 29 28 28 27 25 23 25 29 30 32 33 34 35 35 34 34 34 34 34 34 34 35 37 39 41 43 45 46 46 47 49 50 48 44 43 40 36 36 38 35 32 36 39 38 35 33 30 30 32 31 28 26 24
17 20 23 23 24 26 26 27 29 30 30 31 31 31 30 30 28 27 28 30 30 30 31 32 32 31 29 27 28 30 31 33 33 33 32 30 27 24 24 27 30 31 33 34 35 36 36 35 34 34 34 33 33 35 35 35 35 37 40 42 45 46 47 49 50 49 46 44 41 41 41 40 39 40 42 42 40 39 37 35 36 35 31 27 24
20 21 23 25 25 25 26 27 28 29 30 31 32 33 33 32 30 29 29 30 30 31 33 33 32 32 32 31 31 32 34 37 38 37 35 34 30 26 25 27 29 31 33 34 35 36 37 36 36 36 34 33 34 36 36 35 33 32 36 40 43 44 45 48 50 50 48 46 44 42 39 40 42 40 39 41 41 40 38 38 36 34 30 25 21
24 23 24 26 26 26 26 26 28 29 29 30 31 33 34 34 33 33 33 32 31 31 32 32 32 33 34 33 32 34 36 38 37 36 36 35 32 28 26 27 28 30 32 34 34 36 36 36 37 37 36 35 35 36 37 36 33 32 34 38 40 41 44 48 50 50 49 48 47 45 40 39 41 41 39 39 39 36 33 30 30 30 27 21 19
23 24 25 25 26 26 26 26 28 28 28 29 31 32 33 34 34 34 35 34 33 32 33 33 33 33 34 34 33 34 38 39 38 36 36 36 32 28 27 28 28 30 32 34 34 34 36 36 37 37 37 36 35 35 36 36 35 34 35 36 36 37 41 45 45 45 47 48 47 44 41 38 38 40 40 39 40 39 35 31 31 32 28 18 13
22 23 24 24 26 27 27 27 28 29 30 31 31 32 33 34 33 33 33 33 35 35 33 34 35 34 33 35 35 35 38 42 42 40 40 39 34 29 28 27 28 30 32 33 33 34 36 38 38 38 38 37 36 35 35 36 36 36 35 34 33 35 39 39 36 36 39 40 40 39 38 37 36 37 38 39 41 42 41 38 37 36 30 20 15
22 23 24 25 26 27 28 29 30 31 31 32 33 33 34 34 32 30 30 30 31 32 31 33 37 37 36 37 37 36 38 42 45 44 43 41 36 31 28 26 26 29 31 31 32 33 34 36 37 39 40 40 38 35 35 36 36 36 36 33 30 35 40 36 33 33 34 33 34 33 33 34 33 33 34 37 40 43 43 42 42 41 34 26 22
23 25 26 26 27 29 30 31 32 33 34 34 35 34 34 33 32 31 32 30 29 30 32 34 37 39 39 39 39 40 40 42 46 47 45 42 38 34 30 27 27 29 30 29 29 31 33 34 35 37 39 40 40 38 36 37 37 37 36 34 34 38 37 32 32 36 36 35 34 34 34 34 34 34 34 35 38 41 41 41 42 43 37 31 28
25 27 28 29 30 31 32 32 34 35 36 36 37 36 35 34 34 34 34 33 31 32 35 36 37 39 42 43 43 43 43 44 46 48 47 45 42 37 33 30 31 31 31 29 29 30 32 32 33 35 36 37 39 40 39 39 39 38 38 39 41 40 35 32 34 37 37 36 36 35 36 36 36 37 37 37 37 38 39 39 40 41 39 35 32
28 29 30 31 33 34 35 35 35 36 36 36 36 37 36 36 36 36 35 34 35 36 37 38 37 37 40 43 45 46 46 45 46 48 49 49 46 42 38 36 36 34 31 29 30 31 32 32 32 33 33 34 36 39 39 38 38 39 41 43 43 40 37 36 35 34 36 37 35 35 36 37 37 37 37 36 36 36 36 36 37 38 38 36 34
30 30 31 33 35 36 37 37 36 35 35 35 35 37 38 37 36 36 34 34 36 37 37 37 36 36 37 38 41 45 46 44 44 46 48 49 49 46 43 41 40 37 33 31 33 33 33 34 33 32 32 32 34 36 36 35 36 38 40 41 40 39 39 37 34 34 36 35 33 33 35 37 38 37 35 34 34 33 34 35 36 36 34 32 30
30 29 30 33 35 35 36 36 35 35 35 35 35 37 38 38 36 35 34 34 34 34 33 32 31 32 33 33 35 41 44 43 42 44 45 46 47 47 45 43 42 39 36 35 35 34 34 34 33 32 31 31 31 33 34 35 36 37 37 36 35 36 37 37 36 35 33 33 33 33 34 36 37 35 34 33 32 31 33 34 34 34 32 29 26
30 31 33 34 34 34 35 35 35 35 34 33 33 34 34 33 32 32 32 31 31 31 31 30 29 29 30 31 32 36 39 39 40 42 43 43 42 42 42 42 41 39 37 36 37 37 37 35 33 31 32 31 30 31 32 35 36 36 36 36 36 35 35 36 36 34 31 31 33 32 32 33 33 32 34 36 34 33 32 32 30 29 28 26 23
32 32 33 33 33 33 35 34 33 32 32 30 30 30 30 29 29 29 28 28 29 29 29 29 29 29 29 30 31 33 35 36 37 38 39 40 40 40 39 38 38 38 37 37 38 38 37 35 33 32 33 32 31 31 32 33 34 34 36 38 38 36 35 34 35 33 31 30 30 29 30 32 31 31 35 37 35 34 34 32 30 28 27 26 24
32 32 31 32 32 32 31 31 30 30 29 28 28 28 28 28 28 28 27 27 28 28 28 28 28 27 28 29 29 31 33 34 33 34 34 34 35 36 35 34 34 34 34 35 36 36 34 33 33 33 32 32 33 33 33 32 31 32 34 36 37 35 34 35 35 34 32 31 30 29 30 32 32 33 36 36 34 34 35 34 31 29 28 27 25
29 30 31 31 31 30 29 29 30 29 28 27 27 27 27 27 28 28 28 28 28 28 28 28 28 28 28 28 29 30 32 33 32 32 31 30 30 28 27 27 28 29 29 30 31 31 29 28 29 29 29 30 30 31 31 30 29 30 31 32 33 33 33 33 34 34 33 32 30 30 31 33 34 35 35 33 30 31 33 32 30 29 28 27 25
28 29 30 29 29 28 28 28 29 29 29 28 28 29 28 29 31 31 31 31 32 33 32 32 32 30 30 31 30 29 29 30 31 31 31 31 30 28 25 23 22 23 25 26 25 24 22 23 23 23 24 25 25 26 26 26 26 28 29 30 30 30 30 31 32 33 32 29 28 29 30 32 33 33 33 30 28 29 31 30 29 28 28 27 24
29 29 28 28 28 27 28 29 29 29 30 30 30 31 30 30 32 34 34 34 35 37 38 39 38 37 36 37 36 34 35 36 36 37 36 35 34 33 30 27 24 22 22 22 21 20 19 19 19 21 23 22 20 21 23 23 23 24 26 28 28 27 27 28 31 31 30 28 28 28 29 29 29 30 31 28 26 27 29 28 28 29 29 27 23
28 28 27 27 28 28 29 29 29 29 29 30 30 31 30 30 30 33 35 37 37 38 40 41 42 42 43 42 40 39 42 44 43 42 40 37 37 36 35 33 31 27 25 23 20 19 18 15 14 17 20 20 19 21 23 22 22 21 22 25 26 26 25 26 28 30 29 27 27 28 29 29 29 29 29 28 26 27 28 27 27 29 28 28 25
27 28 28 29 29 29 29 29 29 28 28 29 29 29 29 29 28 29 31 33 35 37 38 40 41 42 43 44 43 41 42 42 43 44 42 40 39 38 36 34 32 30 30 27 21 19 18 15 13 15 16 16 19 23 23 22 22 22 21 21 23 24 24 25 27 30 30 28 28 29 29 30 31 30 30 29 28 27 26 26 28 29 27 25 24
27 28 30 30 29 28 28 28 27 27 27 28 28 27 27 26 25 26 28 30 32 35 36 37 38 39 39 41 41 42 41 41 42 43 43 43 44 42 40 37 34 32 32 29 22 19 19 17 16 17 17 17 19 22 22 21 22 23 22 22 23 23 24 26 28 31 31 31 31 31 31 31 32 31 30 30 29 28 27 28 29 28 26 23 21
29 28 30 30 29 28 28 27 27 27 27 27 27 27 27 27 26 26 27 26 26 28 31 32 33 35 36 37 37 38 38 38 37 38 39 40 42 43 43 41 39 39 38 32 23 19 18 18 17 18 19 20 21 22 21 21 21 22 22 22 22 23 25 27 29 30 31 30 31 31 31 32 32 31 29 28 27 27 28 28 27 25 23 21 19
29 26 27 29 28 27 27 26 26 26 26 26 27 27 27 28 27 27 26 24 23 25 27 29 30 31 33 35 35 36 37 36 36 37 37 37 38 40 38 34 31 33 35 31 25 21 18 17 17 19 20 21 21 21 21 20 21 21 21 20 22 24 26 28 29 30 31 31 30 30 31 31 31 31 30 30 28 27 27 27 27 25 22 20 18
26 23 24 26 25 25 26 27 26 26 27 27 27 27 27 28 27 27 26 26 25 25 26 28 30 31 33 33 34 34 34 34 34 35 35 36 38 38 33 26 22 24 26 25 24 22 19 18 18 19 20 21 21 21 21 20 21 22 23 24 26 27 28 29 31 31 31 31 30 31 31 30 30 30 30 30 29 29 28 27 27 25 23 21 19
25 23 23 24 24 24 25 25 25 26 26 26 26 26 26 26 26 25 25 25 25 26 26 27 28 29 30 31 30 29 30 31 31 32 33 33 34 31 26 22 21 22 22 20 21 21 19 17 17 18 20 22 22 21 21 20 21 22 24 25 27 28 30 31 32 32 31 30 29 30 31 30 31 33 32 31 30 29 28 27 26 24 22 21 19
26 24 23 25 25 26 25 25 25 25 25 24 24 25 25 25 25 24 24 24 24 24 24 25 25 25 26 29 30 28 28 29 27 26 26 24 19 15 13 15 18 20 19 18 19 20 17 15 16 18 21 23 23 22 21 22 22 24 24 24 25 26 27 28 28 29 29 28 28 30 30 30 32 34 35 34 32 30 29 27 25 23 20 19 17
25 25 26 27 27 26 26 26 26 26 25 24 23 23 23 23 23 22 22 22 22 22 22 22 23 24 25 28 29 27 25 24 21 21 22 22 18 14 12 13 16 16 16 17 18 18 16 14 16 19 20 22 23 23 23 24 25 26 27 27 25 24 25 26 27 27 28 28 29 30 30 31 33 35 36 35 32 30 28 26 24 22 20 18 16
24 25 26 27 26 25 26 26 26 25 24 23 22 21 21 21 21 21 21 20 20 21 21 21 22 24 26 27 27 25 22 20 20 20 19 19 20 18 15 15 17 15 15 15 15 14 13 13 15 18 19 20 23 24 25 27 28 28 28 28 27 25 26 28 28 29 29 29 29 30 33 35 36 35 34 32 30 29 28 26 22 21 20 18 16
23 24 25 25 25 25 26 25 25 25 24 23 21 20 20 20 20 20 20 20 20 21 21 21 23 26 27 28 30 29 25 21 21 21 20 18 18 18 16 17 19 15 12 13 12 12 13 14 16 19 20 22 25 26 28 29 29 28 27 27 26 25 26 27 28 29 30 29 30 33 36 39 39 36 33 29 27 27 27 25 22 20 19 17 16
23 23 24 24 24 24 24 24 25 25 25 23 21 18 18 18 18 18 19 19 19 20 20 21 23 26 27 29 31 30 26 23 21 20 18 16 16 17 15 14 14 8 6 11 12 13 15 17 20 22 24 26 28 30 30 30 30 28 28 27 27 26 26 26 27 29 30 30 32 36 39 39 37 34 31 28 26 26 25 23 21 19 17 16 16
23 22 22 22 23 23 23 24 25 25 24 24 23 22 20 17 16 16 18 19 19 20 20 21 23 24 25 25 26 24 19 16 13 13 13 13 13 13 12 9 6 2 6 11 13 14 16 19 21 23 25 28 31 32 32 31 31 30 29 28 27 27 27 27 28 29 29 30 34 38 39 36 34 32 30 28 27 26 24 21 19 17 16 16 15
21 20 21 21 22 22 23 23 23 24 24 24 24 23 22 19 16 16 17 17 18 18 19 19 20 21 20 19 19 18 15 14 12 13 14 13 12 12 11 9 7 5 6 8 10 12 15 18 20 20 20 22 25 26 27 28 29 30 30 29 29 29 29 30 31 32 33 35 38 39 37 35 34 32 30 29 28 25 22 20 18 17 16 15 14
19 19 20 20 21 22 22 23 23 23 23 24 23 22 21 20 19 19 18 18 17 18 18 18 18 18 18 18 17 16 16 15 14 14 15 15 15 14 13 11 10 9 9 9 9 10 12 14 16 17 17 18 20 21 23 23 25 27 29 29 30 31 32 33 34 36 38 40 41 40 38 36 34 31 29 28 27 24 22 20 19 17 16 15 13
18 19 19 19 20 21 21 22 23 23 22 22 21 21 21 20 20 20 19 19 18 18 18 18 18 17 17 17 17 17 17 16 16 16 17 17 16 15 14 12 12 11 11 10 10 10 12 13 15 16 17 18 19 20 21 21 22 23 25 25 27 28 29 32 35 38 40 42 42 40 38 35 32 30 28 27 25 23 22 20 19 17 16 14 13
19 19 18 18 19 20 20 21 21 22 21 21 21 21 21 21 20 20 19 19 19 18 17 18 18 17 17 17 17 17 17 17 16 17 17 17 16 15 13 13 12 12 12 11 11 12 13 14 15 16 18 19 20 20 21 21 21 22 23 23 24 26 28 32 35 37 38 39 38 38 37 35 32 29 28 26 24 23 21 19 18 17 15 14 13
18 18 18 18 18 19 20 20 21 21 21 21 21 21 20 20 20 20 20 20 19 19 18 18 18 18 18 18 18 18 18 17 17 18 18 17 16 15 14 14 14 14 14 14 14 14 15 16 17 18 19 20 20 21 22 22 21 22 23 23 24 28 31 33 34 34 34 34 34 34 34 33 31 29 27 25 24 23 20 18 17 15 14 13 11
19 18 18 18 18 18 19 19 20 20 20 20 20 20 20 20 20 20 20 20 20 19 19 19 19 19 18 18 19 19 18 18 19 20 20 19 18 17 16 16 16 17 18 19 19 19 19 20 21 21 22 22 22 23 23 22 22 22 23 25 27 30 31 31 31 30 30 30 30 30 30 30 29 28 25 23 22 21 19 17 15 14 12 11 11
21 20 19 18 18 18 19 18 19 19 20 19 19 19 20 20 20 20 21 20 20 20 20 19 19 19 19 18 18 18 18 18 19 21 22 22 21 21 21 21 21 22 23 24 24 24 24 25 25 25 26 27 26 26 25 25 25 25 26 26 27 27 27 27 27 26 26 26 26 26 27 27 27 25 23 21 19 18 16 15 13 12 11 11 11
22 21 21 20 20 20 20 19 19 20 20 19 19 19 19 19 19 20 20 20 20 20 20 19 19 19 19 19 18 18 19 20 22 23 24 24 24 25 25 25 25 26 26 27 28 29 30 30 30 29 29 28 27 27 27 26 26 27 26 26 25 25 24 24 24 23 23 23 23 23 24 24 24 23 21 19 17 16 14 13 11 10 10 10 10
Wind_Direction
24 23 21 21 20 19 20 21 21 21 21 20 18 14 11 9 5 3 358 351 342 331 321 311 303 297 290 283 278 272 266 261 258 252 249 249 248 245 243 241 238 238 241 241 239 239 238 238 238 237 234 233 232 233 232 230 229 228 228 226 225 225 221 220 222 185 171 194 196 198 205 202 200 206 206 207 214 215 214 218 224 229 230 230 233
16 16 17 17 17 17 18 19 19 19 19 16 12 8 6 2 359 0 360 357 353 345 335 324 313 305 297 289 283 277 272 267 262 257 252 251 250 248 245 243 241 240 239 240 239 239 239 239 241 240 237 235 234 233 232 230 229 228 227 225 224 224 221 218 219 207 172 177 187 191 198 200 200 205 206 208 213 215 215 218 224 231 233 233 235
7 6 7 8 10 12 13 13 14 15 16 14 9 6 3 359 358 358 357 357 357 353 346 336 324 313 305 297 289 282 276 271 266 261 257 255 252 250 248 245 244 243 242 242 240 238 239 240 241 241 238 236 235 233 232 230 228 228 227 225 224 224 222 218 219 214 185 177 185 188 192 198 201 203 206 208 212 214 216 219 224 231 235 238 239
358 356 356 355 358 2 4 6 7 8 8 6 5 4 3 0 358 355 353 354 356 355 351 346 337 324 313 304 297 289 283 277 271 265 261 259 257 255 253 250 248 246 246 247 245 242 241 242 243 241 237 236 236 234 233 231 228 227 227 226 225 224 222 219 219 218 199 181 186 191 193 196 199 203 202 200 206 212 214 217 223 230 236 241 242
352 349 348 346 347 349 351 354 357 359 360 358 356 357 357 358 358 357 353 350 351 351 348 345 341 333 322 312 304 296 290 284 278 273 268 265 263 259 257 255 253 252 251 251 249 247 244 243 245 243 238 237 238 236 233 231 228 227 226 225 224 223 221 219 218 218 209 189 183 189 193 192 192 198 198 194 196 203 209 214 220 227 235 241 244
350 347 343 341 340 338 340 341 342 346 349 350 349 349 350 351 351 353 351 348 347 345 342 338 334 330 325 318 309 303 297 290 285 280 275 271 269 265 261 260 258 257 256 255 253 251 248 247 247 245 240 239 239 238 235 233 231 229 227 226 224 220 218 218 216 215 213 201 186 182 187 189 188 191 198 198 195 196 200 208 217 225 231 237 242
345 343 339 337 334 333 333 331 329 329 332 335 337 340 342 343 344 345 345 344 343 341 337 334 331 328 324 319 314 308 303 295 288 284 279 277 274 269 266 265 263 260 259 259 257 255 252 251 250 247 244 242 242 242 239 237 234 232 230 227 224 219 217 216 213 211 211 203 189 183 184 188 190 191 195 198 199 199 199 200 209 220 227 232 235
338 337 334 332 330 329 327 325 321 320 323 326 326 326 328 332 335 337 338 338 338 337 335 333 331 328 322 318 315 310 305 298 292 286 282 280 278 273 270 269 266 263 262 262 260 258 256 254 252 250 247 246 245 245 243 240 237 236 234 231 225 220 217 214 211 209 208 203 192 186 182 182 187 188 188 190 193 200 203 202 206 213 222 228 227
332 331 329 328 328 327 326 323 318 315 318 321 322 320 318 319 324 327 330 332 332 333 333 330 329 328 323 319 315 311 305 299 295 291 285 282 279 275 272 271 269 267 265 264 262 260 258 256 254 252 251 250 249 248 246 242 239 238 237 233 226 221 218 215 211 208 207 204 196 187 181 182 185 181 182 190 196 199 200 201 206 212 215 220 221
328 327 324 323 323 323 324 322 318 315 315 317 319 318 315 313 315 318 322 323 323 325 327 325 325 324 322 319 315 311 306 302 299 296 290 285 281 277 274 270 269 268 267 265 264 262 260 259 258 256 254 253 252 250 247 244 242 241 240 234 227 222 219 216 214 211 207 206 201 192 187 190 191 188 189 196 199 198 193 193 197 200 200 205 216
322 319 318 318 317 318 319 318 315 313 313 314 316 317 315 311 309 312 315 316 316 318 319 319 319 318 316 315 313 311 308 305 302 298 294 290 284 278 274 271 269 267 265 264 264 262 261 261 260 259 257 255 253 251 249 246 243 242 241 237 231 227 222 218 216 213 210 210 208 201 199 200 196 194 194 195 195 194 193 193 191 186 184 190 199
310 309 309 310 311 312 314 314 312 309 309 309 311 314 314 309 305 306 310 310 311 313 312 312 312 311 309 308 308 308 308 308 307 303 299 296 290 281 275 272 268 265 263 262 262 262 262 262 260 259 259 257 254 251 249 246 244 242 241 239 235 232 229 225 222 217 213 213 213 209 209 205 198 195 195 193 192 194 195 195 193 190 190 194 196
298 300 302 302 303 305 307 308 307 305 304 304 306 308 309 306 301 300 304 305 305 306 307 307 306 305 304 303 302 303 304 306 309 308 305 302 297 288 278 272 268 265 263 261 261 261 261 261 261 260 260 258 254 251 248 246 244 241 240 239 237 234 232 230 229 225 220 217 216 217 215 209 201 201 201 197 193 190 190 192 195 196 197 200 202
288 293 296 295 294 297 299 298 298 298 298 300 302 303 305 303 298 295 300 302 301 300 302 303 303 301 298 296 298 299 298 301 305 307 307 306 301 291 281 275 269 265 263 262 260 260 260 259 259 260 259 257 253 250 248 244 242 239 236 235 235 234 232 231 230 229 227 223 222 224 222 215 211 211 208 202 198 193 191 192 193 196 198 199 200
286 286 291 292 290 291 293 292 291 291 291 293 295 297 299 301 296 292 296 298 296 297 298 299 298 297 295 294 293 293 293 297 302 304 305 307 305 296 286 279 272 267 265 263 260 260 259 258 258 258 258 256 254 252 249 245 240 235 232 231 232 232 231 230 229 228 227 227 228 229 228 222 218 216 209 204 202 201 199 197 194 192 189 186 182
289 287 290 292 291 289 289 288 287 286 283 285 289 291 294 296 293 291 295 295 293 293 294 293 293 292 292 292 290 288 289 293 296 297 299 302 303 297 288 282 276 270 268 266 263 260 259 257 256 257 256 255 254 252 249 245 239 233 230 229 230 231 232 232 231 228 227 229 230 230 230 226 221 217 212 205 203 201 197 192 189 184 177 172 173
290 290 292 293 292 290 288 286 286 284 279 279 284 287 289 292 289 288 292 294 292 291 291 290 289 288 288 287 285 285 287 288 289 290 291 293 293 290 286 282 277 273 271 269 266 263 260 257 255 255 255 254 252 251 249 244 238 233 231 230 229 230 232 232 231 230 229 230 231 230 229 227 222 217 214 209 204 198 188 182 183 180 176 175 182
294 295 294 293 293 291 289 288 287 286 280 279 283 287 288 288 283 283 288 290 289 289 289 289 288 286 284 283 282 282 283 285 286 285 285 286 285 281 279 276 273 273 273 272 268 265 263 260 256 253 253 252 250 250 247 241 234 231 231 230 228 229 231 229 225 224 226 228 230 229 227 225 221 216 211 209 206 201 194 191 187 182 181 186 184
300 299 296 294 292 290 291 291 290 288 285 282 285 288 289 286 280 280 285 284 283 285 286 286 286 285 283 282 281 281 280 281 283 283 282 282 280 276 273 269 266 268 269 269 268 266 264 262 258 254 252 251 249 247 244 237 232 230 230 228 227 230 230 224 215 214 216 219 222 222 220 219 216 211 207 206 206 205 203 200 193 187 186 188 178
303 300 297 294 291 290 291 292 292 291 289 287 288 289 288 284 280 281 284 280 277 279 280 280 282 283 282 282 282 280 279 279 280 280 279 278 275 272 269 263 261 264 265 264 264 264 264 262 259 256 253 251 248 244 241 236 233 232 230 226 228 232 228 219 214 213 212 212 213 213 211 211 208 205 202 201 202 203 203 202 199 195 190 186 182
303 300 296 293 292 292 293 294 294 293 291 290 290 288 285 281 280 282 283 279 276 277 278 278 279 279 280 282 281 279 277 277 277 277 276 274 270 267 263 260 259 261 262 261 260 261 263 261 259 258 255 250 245 242 239 236 233 233 231 229 233 234 225 216 215 214 210 209 209 207 206 205 204 202 199 197 198 198 197 198 201 199 196 192 188
305 302 299 296 296 297 297 297 295 294 292 290 288 286 284 282 281 281 280 276 275 276 276 277 276 274 277 280 279 278 276 275 273 273 272 271 268 263 259 260 261 259 257 258 257 257 259 259 259 260 255 248 243 240 237 231 228 230 232 234 235 233 224 217 213 209 207 207 205 203 203 202 200 199 196 194 193 193 192 194 197 199 201 201 197
307 304 300 299 300 301 300 299 298 296 294 292 290 287 286 285 283 282 279 277 276 274 273 273 272 270 272 274 274 276 277 274 271 270 268 267 265 263 260 260 260 256 252 252 254 255 257 258 257 257 254 246 239 236 233 228 225 229 232 232 231 229 223 217 210 205 204 203 202 201 202 201 198 196 193 190 187 185 186 189 194 197 199 200 200
308 304 301 301 301 302 301 300 299 297 295 293 289 287 286 284 282 280 278 275 274 272 270 269 268 267 269 268 267 271 274 273 270 268 266 263 263 262 260 258 257 255 250 250 253 254 255 256 254 252 250 243 233 230 230 227 227 230 230 227 225 223 218 213 208 204 201 199 200 202 202 199 196 193 188 182 177 176 181 186 190 193 193 192 192
306 303 302 301 300 301 301 299 297 296 294 292 288 285 284 283 280 278 276 273 271 270 269 269 266 266 268 267 266 269 272 272 270 268 265 262 262 260 256 254 253 253 249 249 251 252 252 253 254 252 249 242 232 228 230 229 228 229 229 226 222 217 213 210 207 203 200 199 200 201 200 197 193 188 183 180 177 176 178 179 180 183 184 183 183
303 301 300 299 298 300 299 296 295 294 293 290 286 283 283 282 279 278 276 273 271 270 269 270 269 268 269 268 269 272 273 272 269 266 263 261 260 258 254 251 251 251 250 249 250 251 251 252 253 251 246 239 231 228 231 231 229 228 229 227 223 216 210 207 204 202 202 201 199 198 197 193 187 182 180 180 179 177 175 171 169 171 176 177 175
300 298 298 297 297 298 296 294 293 293 291 289 286 284 283 281 280 279 278 277 276 273 272 271 271 271 272 272 274 274 274 273 270 266 263 262 260 259 256 253 250 248 247 247 248 249 250 251 250 248 242 235 230 229 230 230 227 225 226 227 224 219 211 206 204 203 202 200 196 193 190 186 181 179 179 178 177 176 174 171 166 165 171 174 171
297 297 297 296 295 294 293 292 292 291 289 288 286 285 284 282 280 278 277 278 277 276 275 273 273 274 275 276 277 277 274 272 269 267 267 265 263 262 259 254 248 243 242 244 246 247 249 249 247 241 234 228 226 225 225 225 222 219 220 222 224 222 214 207 204 203 202 200 194 188 183 180 178 178 177 176 175 174 173 172 168 166 168 170 169
299 298 297 296 294 293 292 291 291 290 289 288 285 282 281 280 279 278 276 274 273 273 274 273 272 273 274 274 275 277 275 273 273 274 274 271 268 267 264 258 251 244 242 243 244 245 245 243 238 228 219 217 217 217 218 217 215 214 215 217 221 220 212 203 200 200 200 197 191 184 179 177 176 175 173 172 172 172 172 171 169 167 168 170 172
300 297 296 294 293 293 293 292 291 289 289 288 287 285 281 278 278 279 279 277 275 275 275 275 275 274 272 269 266 266 268 270 273 275 274 273 271 269 267 265 261 255 250 246 244 243 240 234 226 217 212 210 209 210 210 209 207 209 211 213 216 215 207 199 197 196 194 191 187 181 176 173 172 170 169 166 164 166 169 171 170 168 169 172 174
298 296 295 294 293 293 292 291 290 288 287 287 287 287 287 283 280 279 279 280 281 280 279 279 279 278 277 276 275 273 272 274 275 275 276 277 274 271 267 265 264 262 258 253 246 240 236 229 216 209 209 206 204 207 208 206 205 205 205 207 212 211 202 195 192 189 186 184 180 175 173 172 169 167 167 164 161 163 166 169 170 170 173 176 177
295 295 294 293 292 292 290 288 289 288 287 287 286 286 288 288 286 282 281 282 283 283 283 283 283 282 282 283 284 284 283 282 281 279 278 278 277 275 272 268 265 263 260 254 246 238 234 226 211 204 201 200 206 211 210 207 205 202 199 200 204 204 197 190 186 183 180 177 174 171 171 172 169 167 168 166 163 162 163 165 169 171 173 176 178
293 292 292 291 291 290 288 287 287 286 286 286 286 285 286 287 288 289 289 287 285 285 284 284 284 285 285 285 285 284 284 284 282 278 275 272 271 271 271 270 270 269 264 254 242 236 233 225 216 210 202 198 206 210 209 208 206 202 199 199 198 195 191 185 181 179 177 175 173 171 173 174 171 169 168 167 165 164 164 166 170 172 172 172 173
292 289 288 289 288 287 286 286 285 285 285 286 286 286 286 286 288 290 293 293 291 288 286 284 285 286 287 287 287 286 285 285 282 278 274 270 267 266 266 265 265 267 266 257 240 231 232 226 220 218 211 206 210 211 209 209 206 201 198 196 189 182 179 177 175 174 173 173 173 173 175 176 173 169 166 165 164 162 163 167 169 169 169 170 167
292 288 287 287 287 285 285 285 285 286 286 285 285 286 285 286 287 287 288 290 291 291 290 288 287 288 289 288 288 288 287 285 282 279 274 270 267 265 261 258 255 256 257 251 236 227 231 228 221 219 214 211 213 212 209 207 203 196 188 179 169 167 168 169 170 172 172 172 173 175 176 176 174 171 168 165 163 160 161 165 168 168 167 167 165
293 290 289 289 287 286 286 286 285 285 285 284 284 284 283 284 284 283 283 284 285 287 290 290 290 292 292 290 289 290 291 291 290 288 285 280 276 270 257 244 238 241 243 238 227 223 229 230 222 217 213 212 212 210 207 204 198 190 181 171 166 165 166 167 169 171 172 172 173 173 172 171 171 169 166 164 164 163 162 163 166 168 167 166 165
295 291 290 290 288 287 286 285 283 282 282 281 281 282 281 281 280 281 282 283 284 286 289 292 294 296 296 294 292 294 297 299 298 297 292 286 282 272 252 233 233 237 233 224 216 217 224 226 219 212 210 211 210 207 203 196 188 181 177 172 169 168 169 171 172 171 170 169 169 169 168 168 169 168 165 161 160 160 160 162 164 166 168 167 165
297 293 292 293 293 292 290 288 286 284 283 281 280 280 281 281 280 280 281 283 284 286 289 291 294 295 294 296 299 301 304 305 305 306 303 299 295 285 264 254 254 246 230 215 208 211 217 217 210 207 209 209 205 199 192 183 175 172 171 170 169 169 169 169 169 168 166 165 165 166 166 166 167 167 164 160 158 158 160 162 162 163 165 165 165
300 298 298 300 300 298 295 294 292 289 286 283 281 279 278 279 280 280 280 280 282 284 286 289 290 289 290 295 300 304 306 307 307 309 313 316 320 321 313 303 290 264 231 208 202 207 212 209 203 204 208 204 194 186 179 172 167 169 171 169 167 166 165 164 163 163 163 163 163 164 164 163 163 164 162 159 158 158 160 162 162 163 163 164 167
304 304 304 305 304 302 300 298 295 291 287 283 281 280 278 277 277 278 279 281 281 283 285 285 286 287 288 291 294 296 299 300 299 299 302 308 316 319 320 317 305 273 227 200 195 199 199 194 193 194 193 186 178 173 170 168 167 170 171 170 167 167 167 167 165 164 164 163 162 161 160 159 159 160 159 158 159 160 161 162 163 163 164 165 167
307 306 306 307 307 306 304 302 299 297 293 287 283 280 279 280 279 279 281 281 281 283 284 283 283 285 288 290 291 292 292 292 293 293 292 296 306 311 314 315 309 283 228 191 177 171 167 170 175 175 171 169 169 167 167 169 170 170 169 168 167 165 166 166 166 165 163 161 159 158 157 158 158 158 157 157 159 160 162 162 161 161 162 163 164
310 307 308 310 310 310 308 305 303 303 302 299 294 287 281 281 282 283 283 282 282 284 284 284 285 287 288 291 295 295 290 283 281 285 291 297 302 304 304 310 314 296 202 169 162 162 164 167 170 169 168 169 169 169 171 172 172 169 166 165 165 163 163 164 165 164 162 160 158 157 157 157 157 156 154 154 157 158 159 159 159 159 160 160 162
311 309 310 312 312 312 310 309 310 310 310 310 308 304 298 291 285 282 282 281 281 283 282 283 286 289 291 298 307 310 306 299 299 310 320 326 326 322 320 325 340 35 147 159 169 175 175 172 172 173 174 174 175 176 176 175 171 168 165 164 164 163 162 161 161 162 160 158 156 156 155 155 154 153 152 154 157 157 156 156 156 157 159 161 162
314 313 314 315 317 316 315 315 316 316 316 316 317 317 317 315 308 303 301 298 296 298 298 298 302 307 311 320 331 337 340 344 350 354 353 354 357 1 7 15 29 59 105 134 153 164 168 167 167 168 169 172 174 175 172 170 169 169 166 164 163 163 163 163 163 163 161 157 155 156 156 155 154 153 153 155 156 155 155 157 157 157 158 160 162
316 316 318 319 320 320 320 320 321 321 321 322 323 324 327 328 327 326 325 325 324 325 325 326 329 332 335 339 343 347 352 357 2 6 10 14 18 21 27 36 46 60 76 92 112 132 145 151 155 156 157 160 163 163 162 163 166 168 167 166 167 167 169 169 168 166 163 160 159 158 157 155 154 154 154 154 156 157 157 159 160 159 158 160 165
317 318 321 322 322 323 323 324 324 324 325 326 327 328 329 331 332 333 333 334 335 336 336 339 342 344 345 347 349 351 356 1 5 11 18 25 29 30 36 47 59 69 77 86 99 113 122 130 137 139 139 140 145 148 149 152 157 161 164 165 167 169 171 171 169 166 164 163 161 159 156 154 153 153 154 155 156 157 158 160 162 161 160 162 168
329 325 324 324 324 324 324 326 328 328 329 330 330 331 331 333 334 336 337 338 340 342 344 346 348 350 352 353 353 354 358 2 6 13 22 30 37 41 47 55 63 71 77 82 91 100 106 114 122 127 129 131 135 138 141 144 150 157 162 166 168 170 170 167 165 163 162 162 162 160 157 155 153 154 155 157 158 158 158 159 161 163 165 167 171
340 332 328 327 328 327 327 329 331 332 333 333 333 333 334 336 338 340 342 343 344 347 349 350 352 354 355 356 356 358 1 5 12 21 30 37 44 53 62 69 74 80 85 89 96 103 108 112 117 122 126 130 133 138 143 147 151 156 160 163 164 163 160 158 158 159 160 162 162 160 158 157 157 156 157 159 160 161 162 160 162 166 170 172 176
352 345 338 333 330 329 331 331 332 332 333 333 333 335 337 339 341 344 346 347 349 351 352 353 355 357 357 358 1 3 5 9 18 29 39 45 51 60 68 75 83 89 92 93 98 104 111 115 117 119 121 124 127 132 136 139 142 145 147 148 148 149 150 152 155 158 160 161 161 160 159 158 158 158 159 161 162 164 164 163 164 168 169 172 181
3 359 352 344 339 337 337 335 337 339 339 337 336 338 341 343 345 348 349 350 352 354 355 357 1 3 3 4 6 9 13 20 29 37 43 48 55 64 72 78 85 90 91 92 94 98 104 109 111 113 115 117 119 121 124 126 128 130 131 133 137 141 145 149 152 155 158 160 161 161 160 159 159 160 161 162 162 163 165 165 166 169 171 178 190
8 7 3 358 354 353 349 345 344 347 346 343 341 343 345 347 348 351 355 357 359 0 360 2 7 11 14 19 23 26 30 37 44 48 51 55 62 69 72 73 78 82 85 88 92 95 99 103 106 108 110 112 113 115 117 120 122 124 126 130 134 138 142 145 149 152 156 159 160 162 163 163 162 162 162 163 165 167 168 168 169 173 180 191 201